Regional Weather Roundup
Issued by NWS Charleston, SC

Home | Current Version | Previous Version | Text Only | Print | Product List | Glossary On
Versions: 1 2 3 4 5 6 7 8 9 10 11 12 13 14 15 16 17 18 19 20 21 22 23 24 25 26 27 28 29 30 31 32 33 34 35 36 37 38 39 40 41 42 43 44 45 46 47 48 49 50
000
ASUS42 KCHS 291912
RWRCHS

REGIONAL WEATHER ROUNDUP
NATIONAL WEATHER SERVICE CHARLESTON SC
300 PM EDT MON MAY 29 2017

NOTE: "FAIR" INDICATES FEW OR NO CLOUDS BELOW 12,000 FEET WITH NO
SIGNIFICANT WEATHER AND/OR OBSTRUCTIONS TO VISIBILITY.

NOT ALL STATIONS ARE QUALITY CONTROLLED. USE DATA WITH CAUTION...
ESPECIALLY DEWPOINT OBSERVATIONS.

SCZ027-030-031-034>040-042>050-292000-
...SOUTHEAST SOUTH CAROLINA...

CITY           SKY/WX    TMP DP  RH WIND       PRES   REMARKS
N CHARLESTON   MOSUNNY   91  68  46 VRB3      29.97F HX  95
WATERFRONT PRK   N/A     83  74  74 S10       29.97F HX  90
JOHNS ISLAND   FAIR      88  73  62 S13       29.99S HX  96
PINOPOLIS        N/A     84  72  65 CALM      29.92F
MONCKS CORNER  FAIR      88  64  45 CALM      29.98F
SUMMERVILLE    FAIR      90  68  48 NW6       29.99F HX  93
BEAUFORT MCAS  SUNNY     92  71  50 SW9       29.99F HX  98
BEAUFORT ARPT  FAIR      88  72  58 S8        29.99F HX  94
HILTON HEAD IS SUNNY     86  73  66 SE9       30.01F HX  93
WALTERBORO     CLEAR     91  68  46 W7        29.99F HX  95
ALLENDALE      FAIR      91  66  43 VRB7G14   29.97F HX  94

...SOUTHERN MIDLANDS AND PEE DEE...

CITY           SKY/WX    TMP DP  RH WIND       PRES   REMARKS
GEORGETOWN     FAIR      88  64  45 W12G21    29.99S
KINGSTREE      FAIR      88  64  45 CALM      29.97F
ORANGEBURG     SUNNY     91  65  41 W12       29.98F HX  93
BARNWELL       FAIR      93  68  43 W8        29.98F HX  97
AIKEN          FAIR      88  66  48 W9        30.03F HX  90
MANNING        FAIR      90  70  51 NW15G26   29.97F HX  95
COLUMBIA       MOSUNNY   91  65  41 NW10      29.97F HX  93
SUMTER         SUNNY     89  67  47 W12G17    29.96S HX  92
FLORENCE       MOSUNNY   87  66  49 W6G18     29.97F
MYRTLE BEACH   MOSUNNY   88  66  48 SW9       29.98S HX  90
N MYRTLE BEACH SUNNY     85  69  58 S12       29.97S

$$

GAZ063-065-086>088-099>101-113>116-118-119-134>141-150-292000-
...SOUTHEAST GEORGIA...

CITY           SKY/WX    TMP DP  RH WIND       PRES   REMARKS
SAVANNAH ARPT  MOSUNNY   96  64  34 W8        29.99F HX  98
HUNTER AAF     SUNNY     94  75  54 CALM      29.97F HX 105
FORT STEWART   MOSUNNY   93  64  37 SW10      29.97F HX  95
STATESBORO     SUNNY     93  66  41 W6        30.00F HX  95
SYLVANIA       CLEAR     93  69  44 NW7       30.00F HX  97
CLAXTON        FAIR      92  70  48 S7        30.00F HX  98

...CSRA...CENTRAL AND FAR SOUTHEAST GEORGIA...

CITY           SKY/WX    TMP DP  RH WIND       PRES   REMARKS
THOMSON        MOSUNNY   89  67  47 N7        30.03F HX  91
AUGUSTA-BUSH   SUNNY     95  67  39 SW8       29.96F HX  99
AUGUSTA-DANIEL SUNNY     92  64  39 MISG      29.99F HX  93
SWAINSBORO     FAIR      91  64  40 SW8       30.00F HX  93
VIDALIA        SUNNY     91  68  46 W9G16     30.01F HX  95
EASTMAN        FAIR      92  53  26 W8        30.03S
HAZLEHURST     FAIR      93  69  45 SW3       29.99F HX  99
ALMA           MOSUNNY   94  66  39 SW8       30.00F HX  97
WAYCROSS       PTSUNNY   95  71  44 SW7       30.01F HX 102
JESUP          FAIR      93  59  31 SW6       30.00F HX  92
BAXLEY         FAIR      95  72  46 SW8G16    30.00F HX 103
BRUNSWICK      MOSUNNY   93  72  49 SW7       30.02F HX 100
SAINT SIMONS   SUNNY     88  75  65 SE12      30.01F HX  97

$$

SCZ027-028-034-036>038-045-046-048>050-GAZ119-141-292000-
...LAKE AND SUPPLEMENTAL COASTAL OBSERVATIONS...

STATION/POSITION TIME  TEMP    WIND        PRES    WAVE   SWELL
                       AIR SEA DIR/SP/G            HT/PER HT/PER/DIR
                 (UTC) (F)     (DEG/KT/KT) (MB)    (FT/S) (FT/S/D)
WINYAH BAY       NOT AVBL
LAKE MURRAY      1820   84     250/ 10/ 13 1014.6S
ACE BASIN NERRS  NOT AVBL
FORT PULASKI     1836   85     160/  7/ 10 1016.6R
SAPELO ISLAND    1800   91        CALM     1016.0

$$

ANZ835-935-AMZ111-154-330-350-352-354-370-450-454-472-292000-
...C-MAN AND BUOY OBSERVATIONS...

STATION/POSITION TIME  TEMP    WIND        PRES    WAVE   SWELL
                       AIR SEA DIR/SP/G            HT/PER HT/PER/DIR
                 (UTC) (F)     (DEG/KT/KT) (MB)    (FT/S) (FT/S/D)
BUOY 41004       1850   77 78  230/ 12/ 14 1016.0S   2/ 5   2/140/ 6
BUOY 41008       1850   80 80  160/ 10/ 12 1016.5F   1/ 4
FOLLY BEACH CMAN 1800   81     200/ 11/ 14 1016.7F
CAPERS NEARSHORE 1808   83 79  220/ 12/ 17 1015.6S
FRIPP NEARSHORE  1808   80 79  210/ 10/ 12 1016.0F


STATION/POSITION TIME  TEMP    WIND        PRES    WAVE   SWELL
                       AIR SEA DIR/SP/G            HT/PER HT/PER/DIR
                 (UTC) (F)     (DEG/KT/KT) (MB)    (FT/S) (FT/S/D)
5E ST. MARYS GA  1900      80                N/A     1/ 9
FRYING PAN BUOY  1850   76 76  240/ 10/ 12 1015.1R   3/ 5   2/210/ 5
BUOY 41025       1850   77 77  240/  6/  6 1014.1F   3/ 6   2/220/ 6
CAPE LOOKOUT NC  1800   80     200/ 10/ 11 1013.9F
BUOY 41002       1850   78 77  230/ 14/ 16 1016.7F   3/ 5   2/100/ 8
BUOY 41010       1850   82 80  210/  4/  6 1018.0F   2/ 5   2/180/ 5
ST AUGUSTINE FL  1800   79 79  120/  9/ 10 1018.4F


$$



USA.gov is the U.S. government's official web portal to all federal, state and local government web resources and services.